Regional Weather Roundup
Issued by NWS

Home | Current Version | Previous Version | Graphics & Text | Print | Product List | Glossary On
Versions: 1 2 3 4 5 6 7 8 9 10 11 12 13 14 15 16 17 18 19 20 21 22 23 24 25 26 27 28 29 30 31 32 33 34 35 36 37 38 39 40 41 42 43 44 45 46 47 48 49 50
000
ASUS43 KLMK 231710
RWRKY
KENTUCKY REGIONAL WEATHER ROUNDUP
NATIONAL WEATHER SERVICE LOUISVILLE KY
100 PM EDT SUN JUL 23 2017

NOTE "FAIR" INDICATES FEW OR NO CLOUDS BELOW 12,000 FEET
WITH NO SIGNIFICANT WEATHER AND/OR OBSTRUCTIONS TO VISIBILITY.

KYZ001>023-026-027-061>063-070>075-231800-
WESTERN AND SOUTH CENTRAL KENTUCKY

CITY           SKY/WX    TMP DP  RH WIND       PRES   REMARKS
PADUCAH        SUNNY     89  69  51 VRB7      29.88S HX  93
HENDERSON      MOSUNNY   81  72  74 S13       29.88F
OWENSBORO      MOSUNNY   83  72  69 VRB6      29.90F
HOPKINSVILLE   MOSUNNY   87  75  65 W5        29.89F HX  96
BOWLING GREEN  PTSUNNY   84  71  65 E7        29.90F
GLASGOW        CLOUDY    81  68  65 CALM      29.91F
$$

KYZ024-025-028>034-038-045-046-053-231800-
NORTH CENTRAL KENTUCKY

CITY           SKY/WX    TMP DP  RH WIND       PRES   REMARKS
LOUISVILLE/SDF CLOUDY    79  71  76 SW12      29.88R
LOUISVILLE/LOU CLOUDY    78  73  84 SW12      29.88R
FORT KNOX      CLOUDY    76  71  82 S7        29.90R
$$

KYZ035>037-039>044-047>052-055>060-089>105-231800-
NORTHEAST KENTUCKY

CITY           SKY/WX    TMP DP  RH WIND       PRES   REMARKS
LEXINGTON      CLOUDY    76  70  82 W6        29.88F
COVINGTON      CLOUDY    73  72  96 SE3       29.79F
FRANKFORT      CLOUDY    76  69  79 SW3       29.85F
$$

KYZ054-064>069-076>088-106>120-231800-
SOUTHEAST KENTUCKY

CITY           SKY/WX    TMP DP  RH WIND       PRES   REMARKS
JACKSON        CLOUDY    76  65  68 VRB7      29.95S
LONDON         PTSUNNY   82  64  54 W8        29.95F
SOMERSET       CLOUDY    81  63  54 CALM      29.94F
MIDDLESBORO    CLOUDY    88  71  57 NW6       29.94S HX  93
MONTICELLO     CLOUDY    77  68  73 N12       29.95F
$$





USA.gov is the U.S. government's official web portal to all federal, state and local government web resources and services.